Vorticity
7 7 7 7 7 6 6 6 7 7 7 7 8 7 7 6 6 6 7 9 9 8 6 4 4 4 5 5 5 7 8 9 9
7 7 8 9 9 9 8 8 7 6 6 6 6 6 7 9 9 8 5 5 6 6 6 6 6 5 6 7 8 9 7 5 6
6 6 7 7 8 8 9 10 10 10 9 9 7 6 5 5 7 8 6 6 5 4 4 5 6 6 6 5 5 5 8 10 9
6 6 6 6 7 7 7 6 5 5 5 5 5 5 5 6 6 6 5 4 5 6 7 8 7 7 6 7 7 8 8 2 -4
8 7 6 6 5 5 6 7 7 7 5 4 4 5 5 5 4 5 5 6 7 6 6 5 5 5 5 5 6 6 6 7 9
6 7 6 5 5 6 6 6 5 6 6 5 6 6 5 6 5 6 7 6 6 6 6 5 5 5 6 5 5 5 6 5 5
4 5 5 5 5 5 6 6 6 6 7 7 6 6 6 6 6 6 6 6 5 5 6 6 7 7 8 8 9 9 9 9 10
4 5 3 4 4 4 4 6 7 6 8 7 6 7 7 7 6 6 5 5 6 7 8 8 9 9 9 9 8 8 8 8 8
5 4 4 5 4 4 4 4 5 6 7 8 8 8 7 6 6 6 6 7 8 8 9 9 9 9 9 8 8 7 7 7 6
5 4 4 4 3 4 3 2 3 5 7 8 8 8 6 6 6 6 7 7 7 8 8 8 8 7 7 7 6 6 6 7 7
8 7 5 5 5 5 1 1 7 3 7 8 9 7 6 6 6 7 7 7 8 8 8 8 7 7 6 6 6 5 5 5 5
6 5 5 6 6 5 5 6 5 6 7 7 8 7 7 6 6 6 7 8 8 8 8 8 8 7 6 5 6 6 5 5 5
5 5 4 3 2 3 4 8 8 9 8 8 8 6 6 7 7 8 8 7 7 7 7 7 6 7 7 6 6 6 6 6 6
4 7 3 6 8 6 8 10 7 8 10 9 7 7 7 7 7 6 5 5 6 6 7 7 7 7 8 7 7 7 7 7 6
6 6 8 10 8 8 8 8 8 11 9 7 7 7 7 6 5 4 4 4 4 5 5 6 7 7 7 7 7 7 7 7 7
3 6 11 10 5 6 5 9 9 8 7 9 8 3 2 2 2 2 4 4 5 4 4 5 6 7 7 8 7 7 7 8 8
13 1 9 8 4 6 6 7 8 4 1 10 4 9 2 7 14 7 3 3 3 4 4 5 5 5 7 7 7 7 8 8 8
10 2 7 9 5 4 6 7 4 6 3 10 9 7 8 4 2 3 3 3 3 4 4 5 6 6 7 8 8 8 8 9 8
6 0 7 13 6 5 6 4 6 5 6 10 13 7 5 5 6 3 3 3 4 5 5 6 6 7 7 7 8 8 9 8 8
2 2 0 13 7 10 3 6 8 7 6 7 7 7 4 3 3 3 4 3 4 5 5 7 8 8 7 8 8 8 8 7 7
Height
3163 3162 3161 3160 3160 3159 3159 3158 3158 3158 3159 3159 3160 3160 3160 3160 3159 3159 3159 3158 3158 3157 3156 3156 3156 3155 3154 3154 3154 3152 3152 3152 3151
3162 3161 3160 3160 3159 3159 3159 3159 3158 3158 3158 3158 3158 3158 3158 3158 3158 3158 3157 3157 3156 3155 3155 3155 3154 3153 3152 3152 3151 3151 3151 3150 3151
3162 3162 3161 3160 3159 3159 3159 3158 3159 3158 3158 3157 3157 3156 3157 3157 3158 3157 3156 3155 3154 3154 3153 3153 3152 3151 3150 3149 3150 3149 3150 3149 3149
3161 3161 3161 3160 3160 3160 3159 3159 3158 3158 3158 3157 3156 3156 3156 3156 3156 3155 3155 3154 3153 3152 3151 3151 3150 3149 3148 3147 3147 3146 3146 3146 3146
3161 3160 3160 3160 3160 3159 3159 3159 3159 3158 3157 3156 3155 3155 3155 3155 3154 3154 3153 3152 3151 3150 3149 3148 3147 3146 3145 3145 3144 3144 3142 3142 3142
3161 3160 3159 3159 3159 3159 3158 3158 3158 3157 3156 3155 3155 3155 3154 3154 3153 3152 3151 3150 3149 3148 3147 3145 3144 3143 3142 3141 3140 3140 3139 3139 3139
3161 3160 3160 3159 3159 3158 3158 3157 3156 3156 3155 3154 3154 3154 3153 3152 3151 3150 3148 3147 3146 3146 3143 3141 3140 3140 3139 3138 3136 3136 3135 3135 3134
3159 3159 3159 3158 3158 3157 3157 3156 3155 3155 3153 3152 3151 3151 3151 3150 3149 3147 3145 3144 3143 3142 3140 3138 3137 3136 3136 3134 3133 3132 3131 3131 3130
3157 3157 3157 3156 3156 3155 3154 3154 3153 3153 3151 3150 3149 3149 3149 3147 3146 3144 3143 3141 3139 3138 3137 3135 3134 3133 3132 3131 3130 3129 3128 3127 3126
3153 3154 3154 3154 3154 3153 3152 3152 3151 3150 3149 3148 3147 3146 3145 3144 3143 3141 3139 3137 3136 3135 3133 3132 3131 3129 3128 3127 3126 3125 3124 3123 3122
3150 3150 3150 3150 3150 3150 3150 3150 3149 3148 3146 3145 3143 3143 3142 3141 3139 3138 3136 3134 3133 3131 3130 3128 3127 3126 3124 3123 3122 3121 3120 3118 3117
3147 3147 3147 3146 3146 3146 3146 3146 3145 3144 3143 3142 3140 3139 3140 3139 3137 3135 3133 3131 3130 3128 3126 3125 3123 3121 3120 3118 3117 3115 3114 3113 3112
3143 3143 3143 3143 3142 3142 3142 3141 3140 3139 3138 3138 3137 3135 3135 3136 3134 3132 3130 3129 3126 3124 3122 3120 3118 3117 3115 3113 3111 3110 3108 3107 3106
3138 3138 3138 3138 3138 3137 3137 3137 3137 3135 3134 3134 3134 3133 3132 3131 3130 3129 3128 3126 3123 3121 3119 3116 3113 3111 3109 3108 3105 3103 3102 3100 3098
3134 3134 3133 3133 3133 3133 3133 3132 3132 3131 3130 3130 3130 3130 3129 3128 3126 3125 3124 3122 3120 3117 3114 3111 3109 3106 3104 3102 3100 3097 3095 3093 3091
3129 3129 3128 3128 3128 3128 3128 3129 3128 3128 3127 3127 3126 3126 3126 3124 3122 3120 3119 3117 3114 3112 3109 3106 3103 3100 3098 3095 3092 3090 3087 3084 3082
3124 3124 3123 3123 3123 3123 3123 3124 3124 3124 3124 3123 3122 3121 3121 3119 3117 3116 3114 3112 3109 3107 3104 3101 3097 3093 3090 3087 3084 3081 3079 3076 3073
3118 3118 3118 3118 3119 3118 3118 3119 3119 3119 3119 3118 3117 3115 3115 3113 3112 3110 3107 3105 3102 3100 3096 3093 3089 3086 3083 3079 3076 3072 3070 3067 3064
3110 3112 3112 3114 3113 3113 3113 3113 3113 3113 3113 3112 3111 3110 3109 3107 3106 3104 3101 3098 3095 3092 3088 3084 3080 3076 3072 3069 3066 3063 3060 3057 3054
3104 3106 3106 3106 3107 3107 3108 3108 3108 3108 3107 3106 3105 3103 3103 3101 3099 3097 3094 3091 3088 3085 3081 3076 3071 3066 3062 3059 3055 3052 3049 3046 3043